Regional Weather Roundup
Issued by NWS Northern Indiana

Home | Current Version | Previous Version | Graphics & Text | Print | Product List | Glossary Off
Versions: 1 2 3 4 5 6 7 8 9 10 11 12 13 14 15 16 17 18 19 20 21 22 23 24 25 26 27 28 29 30 31 32 33 34 35 36 37 38 39 40 41 42 43 44 45 46 47 48 49 50

000
ASUS43 KIWX 300310
RWRIWX

KIWX WEATHER ROUNDUP
NATIONAL WEATHER SERVICE NORTHERN INDIANA
1100 PM EDT FRI MAY 29 2015

NOTE: "FAIR" INDICATES FEW OR NO CLOUDS BELOW 12,000 FEET WITH NO
SIGNIFICANT WEATHER AND/OR OBSTRUCTIONS TO VISIBILITY.

* THESE STATIONS ARE NOT UNDER NWS QUALITY CONTROL. THEY ALSO MAY NOT
  REPORT WEATHER SUCH AS PRECIPITATION OR FOG.

INZ001>027-300400-
NORTHERN INDIANA

CITY           SKY/WX    TMP DP  RH WIND       PRES   REMARKS
GARY*          MOCLDY    73  66  78 S9        29.95S
VALPARAISO     CLOUDY    71  65  81 SW13      29.98R
MICHIGAN CITY* CLOUDY    72  61  68 S8        29.97S
LAPORTE*       LGT RAIN  72  66  83 SW9       29.99R
KNOX*          MOCLDY    70  68  94 W5        29.98S
SOUTH BEND     LGT RAIN  71  68  90 S13       29.99R
GOSHEN         PTCLDY    76  64  66 S13       29.98R
MONTICELLO*    LGT RAIN  75  66  74 SW6       30.00R
LOGANSPORT*    PTCLDY    73  61  64 S9        30.02R
ROCHESTER*     PTCLDY    79  64  61 S7        30.00S
ANGOLA*        CLEAR     77  70  78 S9        30.00R
FORT WAYNE     PTCLDY    75  63  66 SW10      30.03R
HUNTINGTON*    PTCLDY    74  63  68 S5        30.02R
PERU/GRISSOM   MOCLDY    75  65  71 S12       30.01R
MARION*        CLEAR     73  62  66 S7        30.04R

$$
INZ028>050-300400-
CENTRAL INDIANA

CITY           SKY/WX    TMP DP  RH WIND       PRES   REMARKS
LAFAYETTE      MOCLDY    76  65  68 S8        30.00R
KOKOMO*        CLEAR     75  64  69 SW12      30.03R
MUNCIE*        CLEAR     75  63  66 MISG      30.05R
INDIANAPOLIS   PTCLDY    73  64  73 S9        30.03R

$$
MIZ043>046-050>051-056>058-064>065-071>073-077>080-300400-
SOUTHWEST LOWER MICHIGAN

CITY           SKY/WX    TMP DP  RH WIND       PRES   REMARKS
BATTLE CREEK   PTCLDY    76  64  66 S13       29.95S
BENTON HARBOR  MOCLDY    68  66  93 S7        29.95R
COLDWATER*     PTCLDY    76  63  64 S7        29.98S
HILLSDALE*     PTCLDY    76  64  67 S8        30.00F
HOLLAND        MOCLDY    70  65  84 S7        29.93S
GRAND RAPIDS   TSTM      71  68  90 S13       29.93S
KALAMAZOO      MOCLDY    76  65  68 S7        29.95R
STURGIS*       PTCLDY    75  63  64 S12       29.98R
THREE RIVERS*  MOCLDY    76  64  64 S10G17    29.97R

$$
OHZ001>008-015>018-024>025-300400-
NORTHWEST OHIO

CITY           SKY/WX    TMP DP  RH WIND       PRES   REMARKS
WAUSEON*       FAIR      75  66  73 S9        30.01S
DEFIANCE       PTCLDY    74  63  68 S5        30.01R
FINDLAY        PTCLDY    74  65  73 S9        30.03R
TOLEDO EXPRESS PTCLDY    73  65  75 S5        30.01R
TOLEDO METCALF PTCLDY    75  63  66 S9        30.02R
LIMA           PTCLDY    74  63  68 S7        30.05R

$$
AND FOR LAKE MICHIGAN COASTAL AND OPEN LAKE BUOY OBSERVATIONS

STATION/POSITION TEMP    WIND        PRES    VSBY  WAVE
                 AIR SEA DIR/SP/G                  HT/PER
                 (F)     (DEG/KT/KT) (MB)    (MI)  (FT/S)
CALUMET HARBOR    73     190/  7/  9   N/A
MICHIGAN CITY     73     170/ 13/ 16   N/A
BURNS HARBOR      72     190/ 12/ 14 1014.6S
SAINT JOSEPH      69     130/  2/  8 1014.9S
SOUTH LAKE BUOY   47 38  200/  8/  8 1013.5R         0
4 MI NW BRIDGMAN  62 58  210/  8/ 10   N/A           1/ 3
MICHIGAN CITY     64 56  220/  8/ 10   N/A           1/ 2

$$
&&



USA.gov is the U.S. government's official web portal to all federal, state and local government web resources and services.